sat.trackr.live / text

‹ back to catalog

STARLINK-35620

NORAD 66474 · 2025-262U

PAYLOAD ACTIVE UNKNOWN

§ Identity

Operator
Country
US
Launch date
2025-11-15
Launch site
AFETR
Launch vehicle
Mass (kg)
RCS (m²)

Purposes: comms

External: N2YO · Heavens-Above · Gunter

§ Orbital elements

Epoch: 2026-05-25T05:27:22.932864Z

Period
94.27 min
Inclination
42.9984°
Eccentricity
0.0001113
Mean motion
15.27591146 rev/d
Perigee alt
482.3 km
Apogee alt
483.8 km
Semi-major
6,861.2 km
B*
4.1230e-4
RAAN
223.7666°
Arg perigee
273.7024°
Mean anomaly
86.3701°
Rev number
3,061

§ Raw data

STARLINK-356201 66474U 25262U   26145.22734876  .00011105  00000+0  41230-3 0  99912 66474  42.9984 223.7666 0001113 273.7024  86.3701 15.27591146 30614

JSON: /api/v1/satellites/66474 · /tle

For live sub-satellite position, see the globe view (requires WebGL).

§ Visibility from observer

Set your observer location to see the next 7 days of passes ≥ 10°. The values pass through the URL so the page stays shareable.

No JS? Fill the form by hand. The geolocation button needs JavaScript.